STARLINK-11516, 62522

Orbit data source: Space-Track

STARLINK-11516, 62522 is a payload satellite owned by SpaceX/Seattle (US) in LEO that was launched on Wed, 08 Jan 2025 UTC via an FALCON 9 launch vehicle from the Air Force Eastern Test Range (AFETR). Payload-class satellites include a variety of spacecraft equipped with specific instruments for various scientific and technological missions. These include communications satellites like Starlink; space stations such as the ISS; scientific satellites like the Hubble; Earth observation satellites from companies like Planet Labs, Umbra, and HawkEye 360; GPS; miniature CubeSats for education and research; and military/defense satellites.

Loading next visibility...
Identifier
62522, 2025-004M
Orbit
LEO
Country
Flag of USUS
Related business
Manufacturer
SpaceX/Seattle
Mission
Operational Commercial Communications
Bus & Motor
STARLINK V2MD, Unknown motor
Mass
960 kg wet, ~910 kg dry
Launch date (UTC)
2025-01-08 (10 months ago)
Launch vehicle
FALCON 9
Launch site
Air Force Eastern Test Range (AFETR)
Object type
Payload
Rocket body
Debris
Shape & HBR
Box + 2 Pan, 18.1 m
Radar Cross Section
36.964 m², Large (>1 m²)

Expand to show TLE details & history
Last TLE update: 16 hours ago

TLE from 16 hours ago
0 STARLINK-11516
1 62522U 25004M   25308.51972962  .00370732  00000-0  27393-2 0  9995
2 62522  42.9994 105.1113 0003142 254.1719 105.8802 15.71069045 47527
Epoch: 2025-11-04T12:28Z
TLE epoch observation values (Epoch: 2025-11-04T12:28:24.639Z)
Latitude
-0.00003°
Longitude
-125.99698°
Altitude
356.191 km
Speed
7.697 km/s
True Right ascension
07h 00m 26s
True Declination
0° 00' 00"
Sunlit
Object was in full shadow at epoch
Visualization orbit readout
Latitude
Unknown
Longitude
Unknown
Altitude
Unknown
Speed
Unknown
Apparent Right ascension
Unknown
Apparent Declination
Unknown
Sunlit
N/A
Visualization observer readout
Local Sidereal Time
00:23:50
Azimuth
Unknown
Elevation
Unknown
Doppler factor
Unknown
Orbital elements
Apogee altitude
359.939 km
Perigee altitude
355.706 km
Semi-major axis
6,735.959 km
Eccentricity
0.00031
Inclination
42.9994°
RAAN
105.1113°
Arg. of periapsis
254.1719°
True anomaly
105.91483°
Mean anomaly
105.8802°
Eccentric anomaly
105.89751°
Mean motion
3.92594 °/min
Orbital period
91.7 mins
BSTAR
0.0027393
Loading maneuver chart data...
Computing Atmospheric mass density...
Loading historical data...
Loading historical data...
Loading historical data...
Loading historical data...
Loading historical data...
Loading historical data...
Loading historical data...

Documentation

Showing up to 5 results
|